KG9NS Weather Reports


Display with metric or nautical units.
time (UTC)temp
F
wind
direction
speed
MPH
gust
MPH
rain 1hr
in
rain 24hr
in
rain mn
in
humidity
%
barometer
mb
20260505023731 69 194 5.0 9.0 0.00 0.00 0.01 59 1006.2
20260505023232 69 193 4.0 6.0 0.00 0.00 0.01 60 1006.1
20260505022733 69 191 5.0 7.0 0.00 0.00 0.01 59 1006.1
20260505022231 69 190 2.0 4.0 0.00 0.00 0.01 59 1005.9
20260505021733 69 187 4.0 6.0 0.00 0.00 0.01 59 1005.9
20260505021232 69 199 4.0 6.0 0.00 0.00 0.01 59 1005.8
20260505020732 69 192 5.0 8.0 0.00 0.00 0.01 59 1005.7
20260505020233 69 176 3.0 6.0 0.00 0.00 0.01 59 1005.6
20260505015731 69 166 4.0 6.0 0.00 0.00 0.01 59 1005.6
20260505015231 70 177 2.0 4.0 0.00 0.00 0.01 58 1005.5
20260505014732 70 171 2.0 3.0 0.00 0.00 0.01 58 1005.6
20260505014232 70 175 3.0 6.0 0.00 0.00 0.01 58 1005.5
20260505013733 70 183 3.0 5.0 0.00 0.00 0.01 57 1005.5
20260505013232 70 179 3.0 5.0 0.00 0.00 0.01 57 1005.5
20260505012732 71 168 3.0 4.0 0.00 0.00 0.01 56 1005.4
20260505012232 71 177 1.0 3.0 0.00 0.00 0.01 56 1005.4
20260505011734 71 199 3.0 4.0 0.00 0.00 0.01 55 1005.4
20260505011231 71 184 3.0 5.0 0.00 0.00 0.01 55 1005.3
20260505010732 71 191 4.0 7.0 0.00 0.00 0.01 54 1005.3
20260505010231 71 187 3.0 5.0 0.00 0.00 0.01 54 1005.3
20260505005731 72 182 3.0 4.0 0.00 0.00 0.01 54 1005.3
20260505005231 72 179 5.0 7.0 0.00 0.00 0.01 53 1005.3
20260505004732 72 196 4.0 9.0 0.00 0.00 0.01 53 1005.2
20260505004231 72 192 5.0 7.0 0.00 0.00 0.01 52 1005.3
20260505003731 72 216 4.0 7.0 0.00 0.00 0.01 52 1005.2
20260505003233 73 215 2.0 4.0 0.00 0.00 0.01 52 1005.3
20260505002731 73 209 4.0 9.0 0.00 0.00 0.01 51 1005.3
20260505002231 73 183 5.0 8.0 0.00 0.00 0.01 51 1005.3
20260505001732 73 231 6.0 8.0 0.00 0.00 0.01 50 1005.3
20260505001232 74 188 6.0 10.0 0.00 0.00 0.01 50 1005.4
20260505000731 74 219 4.0 6.0 0.00 0.00 0.01 49 1005.4
20260505000233 74 192 5.0 8.0 0.00 0.00 0.01 49 1005.5
20260504235731 74 208 5.0 6.0 0.00 0.00 0.01 48 1005.6
20260504235232 74 210 4.0 6.0 0.00 0.00 0.01 48 1005.6
20260504234731 74 219 5.0 7.0 0.00 0.00 0.01 48 1005.7
20260504234231 74 191 5.0 9.0 0.00 0.00 0.01 47 1005.8
20260504233731 74 217 6.0 8.0 0.00 0.00 0.01 47 1005.8
20260504233232 75 227 9.0 13.0 0.00 0.00 0.01 46 1005.8
20260504232731 75 228 5.0 10.0 0.00 0.00 0.01 47 1005.9
20260504232231 75 207 9.0 11.0 0.00 0.00 0.01 47 1005.8
20260504231733 75 210 9.0 13.0 0.00 0.00 0.01 47 1005.8
20260504231232 75 216 8.0 12.0 0.00 0.00 0.01 48 1005.8
20260504230732 75 228 6.0 7.0 0.00 0.00 0.01 51 1005.8
20260504230231 75 210 4.0 7.0 0.00 0.00 0.01 52 1005.8
20260504225731 75 187 6.0 9.0 0.00 0.00 0.01 52 1005.9
20260504225233 74 195 4.0 7.0 0.00 0.00 0.01 53 1006.0
20260504224733 73 201 2.0 4.0 0.00 0.00 0.01 54 1006.1
20260504224231 73 198 3.0 4.0 0.00 0.00 0.01 54 1006.2
20260504223732 73 168 2.0 3.0 0.00 0.00 0.01 53 1006.2
20260504223232 73 190 3.0 5.0 0.00 0.00 0.01 52 1006.3
20260504222732 74 230 2.0 4.0 0.00 0.00 0.01 53 1006.4
20260504222232 74 222 4.0 6.0 0.00 0.00 0.01 52 1006.4
20260504221733 74 213 3.0 4.0 0.00 0.00 0.01 52 1006.4
20260504221233 73 215 1.0 2.0 0.00 0.00 0.01 53 1006.4
20260504220731 73 162 2.0 4.0 0.00 0.00 0.01 52 1006.4
20260504220232 73 239 3.0 5.0 0.00 0.00 0.01 52 1006.5
20260504215731 73 221 4.0 7.0 0.00 0.00 0.01 52 1006.4
20260504215234 73 187 4.0 6.0 0.00 0.00 0.01 51 1006.2
20260504214731 73 171 2.0 4.0 0.00 0.00 0.01 53 1006.4
20260504214232 73 207 5.0 6.0 0.00 0.00 0.01 53 1006.7
20260504213733 73 233 3.0 4.0 0.00 0.00 0.01 53 1006.8
20260504213234 73 227 4.0 8.0 0.00 0.00 0.01 53 1006.9
20260504212732 73 241 5.0 7.0 0.00 0.00 0.01 52 1007.0
20260504212233 73 253 7.0 11.0 0.00 0.00 0.01 52 1007.0
20260504211734 73 222 5.0 8.0 0.00 0.00 0.01 52 1007.1
20260504211235 73 222 7.0 11.0 0.00 0.00 0.01 53 1007.1
20260504210734 73 220 6.0 8.0 0.00 0.00 0.01 53 1007.2
20260504210234 73 217 5.0 6.0 0.00 0.00 0.01 54 1007.3
20260504205733 72 231 5.0 8.0 0.00 0.00 0.01 54 1007.4
20260504205233 72 225 6.0 7.0 0.00 0.00 0.01 55 1007.4
20260504204734 72 221 5.0 7.0 0.00 0.00 0.01 55 1007.4
20260504204231 72 220 4.0 7.0 0.00 0.00 0.01 54 1007.4
20260504203732 72 229 4.0 6.0 0.00 0.00 0.01 55 1007.6
20260504203233 72 221 6.0 9.0 0.00 0.00 0.01 55 1007.7
20260504202733 72 239 8.0 11.0 0.00 0.00 0.01 55 1007.9
20260504202233 72 212 11.0 13.0 0.00 0.00 0.01 55 1007.8
20260504201734 72 216 4.0 6.0 0.00 0.00 0.01 56 1007.8
20260504201232 72 228 7.0 11.0 0.00 0.00 0.01 54 1007.8
20260504200734 72 229 7.0 10.0 0.00 0.00 0.01 56 1007.8
20260504200233 71 221 6.0 11.0 0.00 0.00 0.01 58 1007.8
20260504195733 70 218 7.0 12.0 0.01 0.00 0.01 60 1007.8
20260504195232 70 231 4.0 7.0 0.01 0.00 0.01 61 1007.8
20260504194733 69 218 6.0 9.0 0.01 0.00 0.01 62 1007.9
20260504194233 69 215 5.0 9.0 0.01 0.00 0.01 63 1008.0
20260504193731 68 179 4.0 8.0 0.01 0.00 0.01 65 1008.2
20260504193232 67 184 4.0 7.0 0.01 0.00 0.01 67 1008.4
20260504192733 67 193 2.0 4.0 0.01 0.00 0.01 67 1008.4
20260504192231 66 208 4.0 5.0 0.01 0.00 0.01 67 1008.2
20260504191733 66 169 4.0 5.0 0.01 0.00 0.01 69 1008.4
20260504191233 66 236 5.0 8.0 0.01 0.00 0.01 69 1009.2
20260504190731 66 229 5.0 7.0 0.00 0.00 0.01 68 1009.1
20260504190233 67 158 4.0 6.0 0.00 0.00 0.01 66 1008.5
20260504185733 68 219 3.0 5.0 0.00 0.00 0.01 64 1009.2
20260504185233 68 233 6.0 10.0 0.00 0.00 0.00 61 1009.7
20260504184733 68 221 7.0 14.0 0.00 0.00 0.00 61 1009.5
20260504184233 68 219 7.0 9.0 0.00 0.00 0.00 61 1009.2
20260504183734 68 241 8.0 12.0 0.00 0.00 0.00 60 1009.1
20260504183234 69 215 8.0 13.0 0.00 0.00 0.00 60 1009.1
20260504182734 69 225 9.0 13.0 0.00 0.00 0.00 60 1009.1
20260504182231 69 231 7.0 10.0 0.00 0.00 0.00 61 1008.7
20260504181733 69 208 7.0 10.0 0.00 0.00 0.00 61 1008.5
20260504181234 69 182 9.0 12.0 0.00 0.00 0.00 61 1008.4
20260504180735 69 182 7.0 12.0 0.00 0.00 0.00 61 1008.4
20260504180233 70 199 7.0 9.0 0.00 0.00 0.00 60 1008.4
20260504175733 69 215 5.0 9.0 0.00 0.00 0.00 60 1008.1
20260504175233 69 235 10.0 13.0 0.00 0.00 0.00 60 1008.1
20260504174733 69 173 7.0 12.0 0.00 0.00 0.00 61 1008.1
20260504174233 68 219 6.0 10.0 0.00 0.00 0.00 63 1007.9
20260504173734 68 220 6.0 10.0 0.00 0.00 0.00 63 1007.9
20260504173233 68 189 6.0 11.0 0.00 0.00 0.00 62 1008.3
20260504172731 68 205 6.0 9.0 0.00 0.00 0.00 63 1008.4
20260504172232 68 208 5.0 7.0 0.00 0.00 0.00 64 1008.4
20260504171732 68 203 5.0 7.0 0.00 0.00 0.00 62 1008.4
20260504171235 68 167 6.0 7.0 0.00 0.00 0.00 63 1008.2
20260504170733 67 187 3.0 6.0 0.00 0.00 0.00 64 1008.3
20260504170233 67 194 5.0 7.0 0.00 0.00 0.00 63 1008.4
20260504160233 64 166 5.0 7.0 0.00 0.00 0.00 65 1008.9
20260504150734 63 223 5.0 8.0 0.00 0.00 0.00 65 1009.3
20260504150233 62 227 6.0 7.0 0.00 0.00 0.00 65 1009.4
20260504141234 60 167 5.0 9.0 0.00 0.00 0.00 68 1009.5
20260504140736 60 183 5.0 10.0 0.00 0.00 0.00 68 1009.5
20260504140236 59 159 6.0 9.0 0.00 0.00 0.00 68 1009.6
20260504130735 57 160 5.0 7.0 0.00 0.00 0.00 70 1009.6
20260504130233 57 168 4.0 6.0 0.00 0.00 0.00 70 1009.6
20260504120233 54 186 5.0 10.0 0.00 0.00 0.00 70 1009.7
20260504110234 52 169 4.0 6.0 0.00 0.00 0.00 69 1009.5
20260504100231 52 165 4.0 5.0 0.00 0.00 0.00 67 1009.8
20260504081731 53 198 5.0 8.0 0.00 0.00 0.00 63 1010.4
20260504081231 53 181 4.0 6.0 0.00 0.00 0.00 63 1010.5
20260504080731 53 190 5.0 9.0 0.00 0.00 0.00 63 1010.5
20260504080231 53 203 4.0 6.0 0.00 0.00 0.00 63 1010.5
20260504070231 54 192 4.0 7.0 0.00 0.00 0.00 61 1010.8
20260504060231 54 187 4.0 6.0 0.00 0.00 0.00 61 1011.6
20260504050731 54 184 5.0 9.0 0.00 0.00 0.00 60 1012.1
20260504050231 54 176 4.0 8.0 0.00 0.00 0.00 60 1012.0
20260504045731 54 188 4.0 6.0 0.00 0.00 0.00 60 1012.0
20260504045232 54 188 4.0 5.0 0.00 0.00 0.00 60 1012.1
20260504044731 54 189 4.0 7.0 0.00 0.00 0.00 60 1012.1
20260504044233 54 178 4.0 7.0 0.00 0.00 0.00 60 1012.2
20260504043731 54 189 6.0 8.0 0.00 0.00 0.00 59 1012.2
20260504043233 54 196 5.0 8.0 0.00 0.00 0.00 59 1012.2
20260504042731 54 201 4.0 6.0 0.00 0.00 0.00 59 1012.3
20260504042231 54 183 5.0 8.0 0.00 0.00 0.00 59 1012.3
20260504041731 55 176 5.0 9.0 0.00 0.00 0.00 59 1012.3
20260504041231 55 200 5.0 6.0 0.00 0.00 0.00 59 1012.4
20260504040731 55 176 4.0 6.0 0.00 0.00 0.00 58 1012.4
20260504040231 55 176 7.0 11.0 0.00 0.00 0.00 57 1012.5
20260504035731 55 175 3.0 5.0 0.00 0.00 0.00 57 1012.5
20260504035231 55 154 5.0 7.0 0.00 0.00 0.00 57 1012.6
20260504034731 55 164 3.0 4.0 0.00 0.00 0.00 57 1012.6
20260504034231 55 179 4.0 6.0 0.00 0.00 0.00 57 1012.7
20260504033731 56 171 4.0 7.0 0.00 0.00 0.00 56 1012.8
20260504033231 56 192 5.0 7.0 0.00 0.00 0.00 56 1012.8
20260504032732 56 176 4.0 7.0 0.00 0.00 0.00 55 1012.8
20260504032231 56 159 5.0 7.0 0.00 0.00 0.00 55 1012.8
20260504031731 56 161 5.0 7.0 0.00 0.00 0.00 55 1012.8
20260504031231 56 162 5.0 7.0 0.00 0.00 0.00 55 1012.9
20260504030732 57 170 4.0 6.0 0.00 0.00 0.00 54 1012.9
20260504030231 57 166 5.0 8.0 0.00 0.00 0.00 54 1012.9
20260504025731 57 163 4.0 6.0 0.00 0.00 0.00 54 1013.0
20260504025232 57 171 5.0 8.0 0.00 0.00 0.00 53 1013.1
20260504024731 57 161 5.0 8.0 0.00 0.00 0.00 53 1013.1
20260504024231 57 157 4.0 5.0 0.00 0.00 0.00 53 1013.1